Terminal Aerodrome Forecast
Issued by NWS New Orleans/Baton Rouge, LA

Home | Current Version | Previous Version | Text Only | Print | Product List | Glossary On
Versions: 1 2 3 4 5 6 7 8 9 10 11 12 13 14
000
FTUS44 KLIX 230525
TAFBTR
TAF
KBTR 230525Z 2306/2406 30015KT P6SM BKN018
     FM231500 30011KT P6SM SCT060
     FM232300 29006KT P6SM SKC
     FM240400 00000KT P6SM SKC=

USA.gov is the U.S. government's official web portal to all federal, state and local government web resources and services.